If you wish to contribute or participate in the discussions about articles you are invited to join SKYbrary as a registered user

 Actions

Agen-La Garenne Airport

From SKYbrary Wiki

LFBA
Airport
ICAO: LFBA – IATA: AGF
Summary
Name Agen-La Garenne Airport
Region Europe
Territory France FR.gif
Location Agen, Aquitaine
Serving Agen
Elevation 62.179 m
204 ft
204 ft62.179 m
Type medium airport
Coordinates 44° 10' 29.00" N, 0° 35' 26.00" E
Runways
Designator Length Width Surface ROPS
11/29 2165 m7,103.018 ft
30 m98.425 ft
ASP /


METAR
Observation LFBA 241830Z AUTO 32006KT CAVOK 15/03 Q1024 NOSIG
Station Agen
Date/Time 24 March 2019 18:30:00
Wind direction 320°
Wind speed 06 kts
Lowest cloud amount clouds and visibility OK
Temperature 15°C
Dew point 3°C
Humidity 44%
QNH 1024 hPa
Weather condition n/a

Maps

Terrain

Loading map...

Airport Layout

Loading map...


Accidents & Serious Incidents at or in vicinity of LFBA

None on SKYbrary